Regional Weather Roundup
Issued by NWS Lake Charles, LA

Home | Current Version | Previous Version | Text Only | Print | Product List | Glossary On
Versions: 1 2 3 4 5 6 7 8 9 10 11 12 13 14 15 16 17 18 19 20 21 22 23 24 25 26 27
000
ASUS44 KLCH 231411
RWRLCH
REGIONAL WEATHER ROUNDUP
NATIONAL WEATHER SERVICE LAKE CHARLES LA
800 AM CST FRI FEB 23 2018

Note: "fair" indicates few or no clouds below 12,000 feet with no
significant weather and/or obstructions to visibility.


ACROSS SOUTHEAST TEXAS

CITY           SKY/WX    TMP DP  RH WIND       PRES   REMARKS
BEAUMONT       CLOUDY    70  69  97 S5        30.20R
BEAUMONT CITY  CLOUDY    70  68  93 SE5       30.22R FOG
ORANGE         CLOUDY    70  70 100 S6        30.23R FOG
JASPER         CLOUDY    70  69  96 CALM      30.24R FOG
$$

ACROSS CENTRAL LOUISIANA

CITY           SKY/WX    TMP DP  RH WIND       PRES   REMARKS
LEESVILLE      CLOUDY    69  68  96 SE3       30.23R
FULLERTON      CLOUDY    71  70  96 VRB3      30.21R
ALEXANDRIA INT CLOUDY    68  68 100 E7        30.23S FOG
ESLER FIELD    CLOUDY    69  69 100 CALM      30.25S FOG
DERIDDER       FOG       67  65  95 CALM      30.24R VSB 1/4
OAKDALE        LGT RAIN  71  69  94 CALM      30.24S
OPELOUSAS      PTSUNNY   69  69 100 E5        30.25R FOG
$$

ACROSS SOUTHWEST AND SOUTH CENTRAL LOUISIANA

CITY           SKY/WX    TMP DP  RH WIND       PRES   REMARKS
SULPHUR        CLOUDY    71  71  99 SE5       30.23R
LAKE CHARLES   CLOUDY    71  70  96 VRB3      30.21S
CHENNAULT INT  CLOUDY    72  70  94 CALM      30.22S FOG
CAMERON PHI    FOG       70  70 100 SE9       30.22S VSB 0
DEQUINCY       NOT AVBL
JENNINGS       CLOUDY    71  70  96 SE3       30.23S FOG
LAFAYETTE      PTSUNNY   71  70  96 VRB3      30.24R
NEW IBERIA     CLOUDY    70  68  93 E6        30.25R FOG
ABBEVILLE      PTSUNNY   69  69 100 E5        30.25R FOG
PATTERSON      CLOUDY    71  70  96 E6        30.25S
SALT POINT       N/A     70  69  97 SE5       30.22S
$$

SELECTED SITES ACROSS THE REGION

CITY           SKY/WX    TMP DP  RH WIND       PRES   REMARKS
HOUSTON BUSH   FOG       61  60  97 CALM      30.20R VSB 1/8
HOUSTON HOBBY  PTSUNNY   69  69 100 S3        30.19R
GALVESTON      FOG       70  69  97 E10       30.19R VSB 1/8
COLLEGE STAT   FOG       47  47 100 N5        30.23R VSB 3/4
CONROE         FOG       57  57 100 CALM      30.20R VSB<1/4
HUNTSVILLE     FOG       50  50 100 CALM      30.21R VSB 1/4
LUFKIN         FOG       56  56 100 W3        30.23R VSB 1/2
SHREVEPORT       N/A     54  54 100 E3        30.25R FOG
MONROE         CLOUDY    66  66 100 CALM      30.27R FOG
NATCHEZ MS     CLOUDY    70  67  90 SE6       30.28R
BATON ROUGE    PTSUNNY   69  67  93 E5        30.26R FOG
N.O. INTL ARPT LGT RAIN  73  71  93 E9        30.26R
SLIDELL        CLOUDY    70  69  97 SE5       30.28R
$$

MARINE REPORTS

STATION/POSITION TIME  SKY/WX   TEMP    WIND        PRES    VSBY
                                AIR SEA DIR/SP/G
                 (UTC)          (F)     (DEG/KT/KT) (MB)    (MI)
BUOY 30 S HIGH I 1250            66 63  140/  6/  8 1021.9
WVE H/P(F/S)=  3/ 6

SEA RIM ST PARK  1400            68     120/  7/  9 1022.9R
PORT ARTHUR      1336            68 69  140/  6/  9 1023.1R
SABINE PASS N    1336            68 71  140/  7/  8 1024.4R
TEXAS POINT      NOT AVBL
CALCASIEU PASS   1336            69 71  160/  4/  6 1022.1R
LK CHARLES BEACH 1336            71 69              1022.7F
MARSH ISLAND     1300            72                   N/A
FRESH WATER LOCK 1336            71 74  110/  4/  6 1023.6R
AMERADA PASS     1336            69 53  100/  2/  4 1023.9R
$$




USA.gov is the U.S. government's official web portal to all federal, state and local government web resources and services.